This is the latest recevied weather packets stored in our database for station/object KD9WYV. If no packets are shown the sender has not sent any weather packets the latest 10 day(s).
| Time | Temp. | Humidity | Pressure | Rain* | Wind** | Luminosity | Snow |
|---|---|---|---|---|---|---|---|
| 1777632643 | 8.89° C | 91% | 1012.2 hPa | 3.05 mm | - | 1 W/m² | - |
| 1777632340 | 8.89° C | 90% | 1012.2 hPa | 3.05 mm | - | 1 W/m² | - |
| 1777632037 | 9.44° C | 90% | 1012.3 hPa | 1.78 mm | - | 0 W/m² | - |
| 1777631735 | 9.44° C | 90% | 1012.3 hPa | 0 mm | - | 0 W/m² | - |
| 1777631432 | 9.44° C | 90% | 1012.2 hPa | 0 mm | - | 0 W/m² | - |
| 1777631128 | 9.44° C | 90% | 1012.1 hPa | 0 mm | - | 0 W/m² | - |
| 1777630826 | 9.44° C | 89% | 1012.2 hPa | 1.27 mm | - | 0 W/m² | - |
| 1777630522 | 9.44° C | 89% | 1012.4 hPa | 1.27 mm | - | 0 W/m² | - |
| 1777630219 | 9.44° C | 88% | 1012.5 hPa | 0 mm | - | 0 W/m² | - |
| 1777629917 | 9.44° C | 88% | 1012.5 hPa | 1.78 mm | - | 0 W/m² | - |
| 1777629614 | 9.44° C | 87% | 1012.3 hPa | 1.78 mm | - | 0 W/m² | - |
| 1777629310 | 9.44° C | 86% | 1012.3 hPa | 1.78 mm | - | 0 W/m² | - |
| 1777629006 | 10° C | 85% | 1012.5 hPa | 1.78 mm | - | 0 W/m² | - |
| 1777628703 | 10° C | 84% | 1012.4 hPa | 1.27 mm | - | 0 W/m² | - |
| 1777628399 | 10° C | 84% | 1012.5 hPa | 1.27 mm | - | 0 W/m² | - |
| 1777628095 | 10° C | 85% | 1012.7 hPa | 0 mm | - | 0 W/m² | - |
| 1777627790 | 10° C | 85% | 1012.7 hPa | 0 mm | - | 0 W/m² | - |
| 1777627489 | 10° C | 85% | 1012.6 hPa | 0 mm | - | 0 W/m² | - |
| 1777627185 | 9.44° C | 87% | 1012.8 hPa | 0 mm | - | 0 W/m² | - |
| 1777626883 | 9.44° C | 88% | 1012.8 hPa | 0 mm | - | 0 W/m² | - |
| 1777626579 | 10° C | 89% | 1012.9 hPa | 0 mm | - | 0 W/m² | - |
| 1777626273 | 10° C | 88% | 1012.6 hPa | 0 mm | - | 0 W/m² | - |
| 1777625973 | 10° C | 87% | 1012.6 hPa | 1.78 mm | - | 0 W/m² | - |
| 1777625668 | 10° C | 87% | 1013 hPa | 1.78 mm | - | 0 W/m² | - |
| 1777625363 | 10° C | 86% | 1012.7 hPa | 0 mm | - | 0 W/m² | - |
* Rain latest hour (hover to see other rain measurements)
** Current wind speed in m/s (hover to see current wind gust speed)